STARLINK-11671, 64319

Orbit data source: Space-Track

STARLINK-11671, 64319 is a payload satellite owned by SpaceX/Seattle (US) in LEO that was launched on Tue, 10 Jun 2025 UTC via an FALCON 9 launch vehicle from the Air Force Eastern Test Range (AFETR). Payload-class satellites include a variety of spacecraft equipped with specific instruments for various scientific and technological missions. These include communications satellites like Starlink; space stations such as the ISS; scientific satellites like the Hubble; Earth observation satellites from companies like Planet Labs, Umbra, and HawkEye 360; GPS; miniature CubeSats for education and research; and military/defense satellites.

Loading next visibility...
Identifier
64319, 2025-124C
Orbit
LEO
Country
Flag of USUS
Related business
Manufacturer
SpaceX/Seattle
Mission
Operational Commercial Communications
Bus & Motor
STARLINK V2MD, Unknown motor
Mass
960 kg wet, ~910 kg dry
Launch date (UTC)
2025-06-10 (10 months ago)
Launch vehicle
FALCON 9
Launch site
Air Force Eastern Test Range (AFETR)
Object type
Payload
Rocket body
Debris
Shape & HBR
Box + 2 Pan, 18.1 m
Radar Cross Section
36.964 m², Large (>1 m²)

Expand to show TLE details & history
Last TLE update: 1 day ago

TLE from 1 day ago
0 STARLINK-11671
1 64319U 25124C   26111.08398814  .00234540  00000-0  17728-2 0  9994
2 64319  42.9985 133.5189 0002003 263.5116  96.5524 15.70938799 49508
Epoch: 2026-04-21T02:00Z
TLE epoch observation values (Epoch: 2026-04-21T02:00:56.575Z)
Latitude
0.00002°
Longitude
-105.88166°
Altitude
356.138 km
Speed
7.697 km/s
True Right ascension
08h 54m 04s
True Declination
0° 00' 00"
Sunlit
Object was in daylight at epoch
Visualization orbit readout
Latitude
Unknown
Longitude
Unknown
Altitude
Unknown
Speed
Unknown
Apparent Right ascension
Unknown
Apparent Declination
Unknown
Sunlit
N/A
Visualization observer readout
Local Sidereal Time
12:16:12
Azimuth
Unknown
Elevation
Unknown
Doppler factor
Unknown
Orbital elements
Apogee altitude
359.544 km
Perigee altitude
356.845 km
Semi-major axis
6,736.332 km
Eccentricity
0.0002
Inclination
42.9985°
RAAN
133.5189°
Arg. of periapsis
263.5116°
True anomaly
96.5752°
Mean anomaly
96.5524°
Eccentric anomaly
96.5638°
Mean motion
3.92562 °/min
Orbital period
91.71 mins
BSTAR
0.0017728
Loading maneuver chart data...
Computing Atmospheric mass density...
Loading historical data...
Loading historical data...
Loading historical data...
Loading historical data...
Loading historical data...
Loading historical data...
Loading historical data...

Documentation

Showing up to 5 results
|